Home   Weather   Borough of Clarion   Past weeks
Flag for USA

Past Weather in Borough of Clarion, Pennsylvania, USA — Yesterday and Last 2 Weeks

Now
48 °F

Mostly cloudy.


Feels Like: 41 °F
Forecast: 47 / 28 °F
Wind: 21 mph from West

Location: Du Bois-Jefferson County Airport

Current Time: Mar 24, 2019 at 10:07:09 pm

Latest Report: Mar 24, 2019 at 8:53 pm


Visibility: 10 mi

Pressure: 30.09 "Hg

Humidity: 46%

Dew Point: 28 °F

Location of Borough of ClarionLocation

Past Weather in Borough of Clarion — Graph

°F

Borough of Clarion Temperature Yesterday

Maximum temperature yesterday: 42 °F (at 3:53 pm)
Minimum temperature yesterday: 23 °F (at 6:53 am)
Average temperature yesterday: 31 °F

High & Low Weather Summary for the Past Weeks

 TemperatureHumidityPressure
High68 °F (Mar 14, 2:53 pm)92% (Mar 10, 7:53 am)30.43 "Hg (Mar 10, 7:53 am)
Low20 °F (Mar 19, 7:53 am)22% (Mar 20, 4:53 pm)29.59 "Hg (Mar 22, 12:06 pm)
Average36 °F59%30.06 "Hg
* Reported Mar 10 6:53 am — Mar 24 8:53 pm, Borough of Clarion. Weather by CustomWeather, © 2019

Note: Actual official high and low records may vary slightly from our data, if they occured in-between our weather recording intervals... More about our weather records

Advertising

Borough of Clarion Weather History for the Previous 24 Hours

Scroll right to see more
 ConditionsComfort  
Time TempWeatherWind HumidityBarometerVisibility
8:53 pm
Sun, Mar 24
48 °FMostly cloudy.21 mph46%30.09 "Hg10 mi
7:53 pm49 °FOvercast.9 mph31%30.08 "Hg10 mi
6:53 pm50 °FOvercast.10 mph29%30.07 "Hg10 mi
5:53 pm51 °FPartly sunny.12 mph27%30.07 "Hg10 mi
4:53 pm51 °FOvercast.13 mph27%30.08 "Hg10 mi
3:53 pm51 °FOvercast.12 mph28%30.09 "Hg10 mi
2:53 pm49 °FPartly sunny.15 mph31%30.12 "Hg10 mi
1:53 pm48 °FScattered clouds.18 mph32%30.16 "Hg10 mi
12:53 pm48 °FPassing clouds.16 mph30%30.17 "Hg10 mi
11:53 am43 °FSunny.10 mph37%30.18 "Hg10 mi
10:53 am42 °FSunny.8 mph39%30.22 "Hg10 mi
9:53 am38 °FSunny.8 mph45%30.23 "Hg10 mi
8:53 am33 °FSunny.6 mph49%30.24 "Hg10 mi
7:53 am29 °FSunny.5 mph54%30.26 "Hg10 mi
6:53 am27 °FClear.7 mph55%30.25 "Hg10 mi
5:53 am27 °FClear.6 mph51%30.23 "Hg10 mi
4:53 am28 °FClear.8 mph43%30.23 "Hg10 mi
3:53 am26 °FClear.5 mph46%30.22 "Hg10 mi
2:53 am28 °FClear.3 mph47%30.24 "Hg10 mi
1:53 am27 °FClear.6 mph51%30.24 "Hg10 mi
12:53 am29 °FClear.6 mph45%30.25 "Hg10 mi
11:53 pm
Sat, Mar 23
31 °FClear.6 mph40%30.25 "Hg10 mi
10:53 pm31 °FClear.7 mph40%30.26 "Hg10 mi
Weather by CustomWeather, © 2019

See weather overview